[[{"header":{"parameterUnit":"m.s-1","parameterCategory":1,"la1":30.2991,"la2":30.254,"lo1":-89.0895,"lo2":-89.0444,"dy":0.0017,"dx":0.0017,"nx":28,"ny":28,"refTime":"2025-08-13T09:00:00:Z","depth":0,"parameterNumber":2,"parameterNumberName":"U-component_of_WINDS"},"data":[0,0,0,0,0,0,0,0,0,0,0,0,0,0,0,0,0,0,0,0,0,0,0,0,0,0,0,0,0,0,0,0,0,0,0,0,0,0,0,0,0,0,0,0,0,0,0,0,0,0,0,0,0,0,0,0,0,0,1.1881,1.1882,0,1.1992,1.1993,1.1994,1.1975,1.1973,1.1971,1.1969,1.2088,1.2092,1.2097,0,0,0,0,0,0,0,0,0,0,0,0,0,1.1658,1.1662,1.1881,1.1882,1.1883,1.1992,1.1993,1.1995,1.1976,1.1973,1.1971,1.1969,1.2086,1.2092,1.2098,0,0,0,0,0,0,0,0,0,0,0,0,0,1.176,1.1663,1.188,1.1887,1.1888,1.1991,1.1993,1.1995,1.1976,1.1973,1.197,1.1967,1.2084,1.2091,1.2099,1.2203,0,0,1.2121,1.2124,0,0,0,0,0,0,0,0,1.1755,1.1769,1.1884,1.1887,1.1889,1.1966,1.1958,1.2065,1.1977,1.1943,1.1969,1.1966,1.205,1.206,1.2087,1.2209,1.2214,1.2122,1.2126,1.213,1.2132,0,0,0,0,0,0,0,1.1747,1.1764,1.1925,1.1886,1.1889,1.1886,1.1897,1.1978,1.2012,1.1946,1.1944,1.1958,1.2051,1.208,1.209,1.2215,1.2122,1.2128,1.2133,1.2136,1.2432,1.2435,0,0,0,0,0,0,1.1738,1.1758,1.1921,1.1928,1.1813,1.1892,1.1905,1.1945,1.2011,1.2018,1.196,1.1956,1.2069,1.2081,1.2094,1.2223,1.213,1.2137,1.2141,1.2428,1.2432,1.2436,0,0,0,0,0,0,1.1733,1.1752,1.1917,1.1843,1.1863,1.1899,1.1944,1.1948,1.1978,1.2022,1.2028,1.1984,1.2067,1.2084,1.2177,1.2227,1.214,1.2147,1.2424,1.243,1.2434,1.248,0,0,0,0,0,0,1.1727,1.1751,1.1789,1.1844,1.1867,1.1996,1.1947,1.1953,1.199,1.1987,1.2046,1.2053,1.2066,1.2166,1.2184,1.2235,1.2153,1.242,1.2427,1.2433,1.2474,1.2486,1.2496,0,0,0,0,0,1.1719,1.1798,1.1791,1.1811,1.1916,1.1998,1.2012,1.2025,1.1994,1.2035,1.2063,1.2051,1.2218,1.2175,1.2196,1.225,1.2417,1.2425,1.2432,1.2469,1.2484,1.2496,0,0,0,0,0,0,1.1749,1.1805,1.1798,1.1897,1.1943,1.1995,1.2046,1.2039,1.2096,1.209,1.2105,1.2118,1.2213,1.2241,1.2192,1.2357,1.2314,1.2326,1.2335,1.2349,1.2359,1.2351,1.2159,0,0,0,0,0,1.1768,1.1828,1.1874,1.1957,1.1981,1.2009,1.2046,1.2052,1.21,1.212,1.2155,1.2204,1.2268,1.231,1.2371,1.2478,1.2492,1.2526,1.2537,1.2546,1.2556,1.2618,1.2634,1.2461,1.2461,1.2461,0,0,1.1806,1.1844,1.1881,1.1964,1.2001,1.2065,1.2026,1.2095,1.2144,1.2131,1.2221,1.2249,1.2305,1.2406,1.2452,1.2432,1.2607,1.2555,1.2562,1.2568,1.2627,1.2644,1.2658,1.2466,1.2465,1.2465,0,0,1.1909,1.1943,1.2017,1.2054,1.2109,1.2128,1.2146,1.22,1.2218,1.2308,1.23,1.236,1.2469,1.251,1.2545,1.2666,1.2658,1.2686,1.2743,1.2803,1.2817,1.2829,1.2874,1.289,1.2696,1.2696,1.2696,0,1.195,1.2045,1.2056,1.2127,1.2165,1.2155,1.2232,1.2268,1.2341,1.2369,1.2344,1.2483,1.252,1.2632,1.2661,1.269,1.2712,1.2679,1.2813,1.2826,1.2838,1.2881,1.2898,1.2699,1.2699,1.2699,1.2698,0,1.2094,1.216,1.2214,1.2284,1.2328,1.2401,1.2425,1.2469,1.2472,1.2494,1.2588,1.2632,1.2703,1.273,1.2734,1.2844,1.283,1.281,1.2767,1.2857,1.2898,1.2915,1.2704,1.2703,1.2702,1.2701,0,0,1.2218,1.2294,1.2314,1.2347,1.2408,1.2461,1.2535,1.2604,1.2642,1.2693,1.2757,1.2851,1.2834,1.2874,1.2882,1.2934,1.3031,1.2908,1.291,1.2931,1.3157,1.3172,1.3191,1.3025,1.3028,1.3031,1.3153,0,1.2327,1.2457,1.247,1.2587,1.265,1.2643,1.2708,1.2755,1.2778,1.2837,1.2863,1.293,1.2901,1.2925,1.2977,1.3008,1.3076,1.2999,1.3087,1.309,1.3074,1.3212,1.3228,1.3341,1.3169,1.3172,1.3174,0,1.2472,1.2527,1.265,1.2705,1.2732,1.279,1.2855,1.2911,1.2964,1.2978,1.3024,1.3026,1.3105,1.306,1.317,1.3118,1.3155,1.3176,1.3181,1.319,1.3138,1.3227,1.3377,1.3394,1.3199,1.3197,1.3195,0,1.2552,1.2658,1.2745,1.2773,1.2839,1.2881,1.291,1.2961,1.3002,1.306,1.3087,1.3154,1.3191,1.3244,1.3265,1.3229,1.3376,1.3331,1.3391,1.3391,1.3422,1.342,1.3582,1.3445,1.3445,1.3444,1.3444,0,1.2674,1.2749,1.2782,1.2836,1.2922,1.2938,1.3023,1.3051,1.3097,1.3158,1.3157,1.3214,1.3239,1.3301,1.3319,1.3409,1.3426,1.3441,1.3444,1.3441,1.3439,1.3466,1.3459,1.3449,1.3448,1.3447,1.3446,0,1.2777,1.2802,1.2897,1.2953,1.2968,1.3029,1.3078,1.3131,1.3155,1.3232,1.3252,1.3289,1.3363,1.3389,1.3479,1.3491,1.3597,1.3593,1.3578,1.3579,1.3639,1.3633,1.3824,1.3851,1.3695,1.3696,1.3698,0,1.2853,1.2912,1.2973,1.3014,1.3045,1.311,1.3152,1.3171,1.3216,1.3282,1.3329,1.3402,1.3461,1.358,1.3616,1.3686,1.3685,1.3747,1.3696,1.3691,1.3688,1.3685,1.3692,1.3757,1.3759,1.376,1.3761,0,1.2987,1.2997,1.3056,1.3122,1.3172,1.3225,1.3276,1.331,1.3337,1.3388,1.3462,1.3509,1.3601,1.3674,1.3746,1.3779,1.3776,1.3777,1.3795,1.3792,1.3782,1.379,1.3606,1.3773,1.3771,1.3771,1.377,1.3769,1.308,1.3132,1.3184,1.3252,1.3293,1.3341,1.3395,1.3425,1.3488,1.3563,1.3571,1.3653,1.3708,1.3803,1.384,1.3906,1.3889,1.3914,1.3921,1.3927,1.3932,1.3771,1.3919,1.3918,1.3918,1.3918,1.3918,0,1.3214,1.3248,1.331,1.3382,1.3436,1.3427,1.3484,1.353,1.3602,1.3652,1.3711,1.3799,1.3871,1.3914,1.3987,1.4031,1.4032,1.405,1.4047,1.4056,1.3942,1.392,1.4048,1.4048,1.4048,1.4048,1.4048,1.4048,1.329,1.3379,1.3395,1.3505,1.3539,1.3618,1.3652,1.3697,1.3738,1.3836,1.3895,1.3922,1.3971,1.4048,1.4115,1.4126,1.4153,1.4173,1.4183,1.4077,1.4063,1.405,1.403,1.4179,1.4179,1.4291,1.4292,1.4293]},{"header":{"parameterUnit":"m.s-1","parameterCategory":1,"la1":30.2991,"la2":30.254,"lo1":-89.0895,"lo2":-89.0444,"dy":0.0017,"dx":0.0017,"nx":28,"ny":28,"refTime":"2025-08-13T09:00:00:Z","depth":0,"parameterNumber":3,"parameterNumberName":"V-component_of_WINDS"},"data":[0,0,0,0,0,0,0,0,0,0,0,0,0,0,0,0,0,0,0,0,0,0,0,0,0,0,0,0,0,0,0,0,0,0,0,0,0,0,0,0,0,0,0,0,0,0,0,0,0,0,0,0,0,0,0,0,0,0,1.0057,1.0058,0,1.0193,1.0195,1.0196,1.0195,1.0194,1.0192,1.019,1.0337,1.0343,1.0348,0,0,0,0,0,0,0,0,0,0,0,0,0,0.9803,0.9808,1.0057,1.0058,1.006,1.0193,1.0195,1.0197,1.0196,1.0193,1.0191,1.0189,1.0335,1.0342,1.0349,0,0,0,0,0,0,0,0,0,0,0,0,0,0.9924,0.9809,1.0056,1.0075,1.0078,1.0192,1.0195,1.0197,1.0196,1.0193,1.0191,1.0188,1.0333,1.0341,1.035,1.0456,0,0,1.0375,1.0379,0,0,0,0,0,0,0,0,0.9917,0.9933,1.0071,1.0074,1.0078,1.0174,1.0159,1.0284,1.0197,1.0152,1.019,1.0187,1.0286,1.0298,1.033,1.0463,1.0469,1.0376,1.0381,1.0385,1.0387,0,0,0,0,0,0,0,0.9909,0.9928,1.0111,1.0073,1.0077,1.008,1.0094,1.0183,1.0233,1.0155,1.0156,1.0171,1.0287,1.0322,1.0333,1.0471,1.0376,1.0383,1.0389,1.0392,1.0702,1.0705,0,0,0,0,0,0,0.9895,0.9921,1.0106,1.0115,0.9989,1.0086,1.0102,1.0146,1.0231,1.0242,1.0174,1.0171,1.0308,1.0323,1.0338,1.0471,1.0385,1.0393,1.0397,1.0699,1.0703,1.0706,0,0,0,0,0,0,0.989,0.9912,1.0101,1.0018,1.0042,1.0094,1.0143,1.015,1.0185,1.0245,1.0255,1.0199,1.0307,1.0326,1.0427,1.0476,1.0396,1.0404,1.0695,1.07,1.0704,1.0735,0,0,0,0,0,0,0.9883,0.991,0.9949,1.0019,1.0046,1.0185,1.0146,1.0155,1.0198,1.0196,1.0272,1.0282,1.0306,1.0414,1.0435,1.0486,1.0411,1.0691,1.0697,1.0703,1.073,1.0741,1.0749,0,0,0,0,0,0.9874,0.9953,0.9951,0.9973,1.0096,1.0188,1.0204,1.0229,1.0202,1.0243,1.0282,1.0279,1.0466,1.0425,1.0448,1.0502,1.0688,1.0695,1.0702,1.0726,1.0738,1.0749,0,0,0,0,0,0,0.9891,0.9963,0.9961,1.0065,1.012,1.0187,1.024,1.0241,1.0306,1.0302,1.0332,1.0349,1.045,1.0486,1.0438,1.0611,1.0574,1.0587,1.0584,1.0597,1.0606,1.0597,1.0418,0,0,0,0,0,0.9906,0.9972,1.0032,1.0118,1.0146,1.0188,1.0229,1.0243,1.0302,1.0326,1.0373,1.0433,1.0505,1.0552,1.0622,1.0734,1.0753,1.0784,1.0793,1.0801,1.0812,1.0877,1.0892,1.073,1.073,1.073,0,0,0.9939,0.9987,1.0027,1.0123,1.0167,1.0238,1.0208,1.0283,1.0337,1.0339,1.0436,1.0472,1.0542,1.0649,1.0699,1.0682,1.0861,1.081,1.0815,1.0823,1.0886,1.0902,1.0915,1.0735,1.0734,1.0733,0,0,1.0037,1.0078,1.0155,1.02,1.0267,1.0294,1.0313,1.038,1.0404,1.0502,1.0505,1.057,1.0694,1.0744,1.0785,1.0902,1.0903,1.0924,1.0976,1.1039,1.1052,1.1063,1.1108,1.1124,1.0934,1.0934,1.0935,0,1.0071,1.0175,1.0196,1.0272,1.0315,1.0317,1.0398,1.0441,1.0528,1.056,1.0539,1.0695,1.0741,1.0862,1.089,1.0923,1.0948,1.0917,1.1047,1.1059,1.1071,1.1114,1.113,1.0937,1.0937,1.0936,1.0936,0,1.0215,1.0287,1.0342,1.0424,1.0474,1.0552,1.0587,1.0635,1.0645,1.0676,1.0777,1.0832,1.0915,1.0944,1.0955,1.1067,1.1055,1.104,1.1005,1.1088,1.113,1.1146,1.094,1.0939,1.0939,1.0938,0,0,1.0329,1.0421,1.0441,1.0479,1.0553,1.0611,1.069,1.0768,1.081,1.087,1.094,1.1044,1.1032,1.1079,1.1095,1.115,1.1244,1.113,1.1132,1.1152,1.1375,1.1388,1.1406,1.1243,1.1246,1.1249,1.137,0,1.0437,1.0575,1.0596,1.0719,1.0788,1.0791,1.0861,1.0915,1.0946,1.1011,1.1046,1.1121,1.1097,1.1126,1.118,1.1221,1.1289,1.1212,1.1312,1.1316,1.1298,1.1427,1.1441,1.1553,1.1386,1.1389,1.1391,0,1.0581,1.0643,1.0772,1.0838,1.0868,1.093,1.1005,1.1065,1.1129,1.1147,1.12,1.121,1.1296,1.1254,1.1374,1.1321,1.1363,1.139,1.1395,1.1408,1.1361,1.1448,1.1589,1.1607,1.1416,1.1414,1.1412,0,1.0655,1.0771,1.0864,1.0896,1.0975,1.1019,1.1054,1.1113,1.116,1.1226,1.1257,1.1332,1.1375,1.1434,1.1466,1.1432,1.1586,1.1546,1.1607,1.1607,1.1642,1.164,1.1796,1.1663,1.1663,1.1663,1.1662,0,1.0775,1.0855,1.0898,1.0956,1.1047,1.1071,1.1161,1.1196,1.1249,1.1316,1.1323,1.1386,1.1422,1.1491,1.1517,1.1615,1.1633,1.1653,1.166,1.1655,1.1653,1.1685,1.168,1.1667,1.1666,1.1665,1.1665,0,1.0874,1.0906,1.1008,1.1073,1.1092,1.1156,1.1214,1.1272,1.1301,1.1386,1.1407,1.1456,1.1538,1.1574,1.1676,1.1693,1.1806,1.1805,1.1784,1.1787,1.1848,1.1843,1.2033,1.2061,1.1907,1.1908,1.1909,0,1.0951,1.1012,1.1083,1.1127,1.1163,1.1234,1.1281,1.1308,1.1357,1.1434,1.1484,1.1565,1.1632,1.1763,1.181,1.1888,1.1892,1.1953,1.1904,1.1898,1.1897,1.1894,1.1902,1.1963,1.1964,1.1966,1.1967,0,1.1084,1.1096,1.1162,1.1234,1.129,1.1348,1.1406,1.1442,1.1479,1.1534,1.1617,1.1669,1.1772,1.1855,1.1936,1.1975,1.1979,1.1981,1.2,1.1997,1.1984,1.1996,1.1812,1.1977,1.1976,1.1976,1.1975,1.1974,1.1176,1.1232,1.1291,1.1365,1.1411,1.1465,1.1523,1.1559,1.1628,1.1713,1.1724,1.1814,1.1878,1.1987,1.203,1.2102,1.2088,1.2114,1.2122,1.2129,1.2135,1.1969,1.2117,1.2116,1.2116,1.2116,1.2116,0,1.1313,1.135,1.1418,1.1498,1.1557,1.1551,1.1615,1.1666,1.1743,1.1801,1.1866,1.1963,1.2043,1.2095,1.2177,1.2225,1.2229,1.2246,1.2245,1.2255,1.2141,1.2118,1.2242,1.2242,1.2242,1.2242,1.2242,1.2241,1.1391,1.1485,1.1505,1.1624,1.1662,1.1748,1.1785,1.1836,1.1882,1.1989,1.2055,1.2087,1.2144,1.223,1.2304,1.2318,1.2349,1.2368,1.2381,1.2275,1.2262,1.225,1.2228,1.2373,1.2374,1.2489,1.249,1.2491]}]]